Hourly Data Report for October 13, 2016

All times are specified in Local Standard Time (LST). Add 1 hour to adjust for Daylight Saving Time where and when it is observed.

PENTICTON A
BRITISH COLUMBIA

49°27'45.000" N
119°36'08.000" W
344.40 m
1126146
71889
YYF

Download Data

Hourly Data (October 2016)
Hourly Data Report for October 13, 2016
Temp Definition
°C
Dew Point Temp Definition
°C
Rel Hum Definition
%
Wind Dir Definition
10's deg

Wind Spd Definition
km/h
Visibility Definition
km
Stn Press Definition
kPa
Hmdx Definition


Wind Chill Definition


Weather Definition


TIME
00:00 Legend Double Dagger 10.1 -0.1 49 12 14 24.1 97.25     LegendNANA
01:00 Legend Double Dagger 10.2 1.1 53 16 18 24.1 97.18     Cloudy
02:00 Legend Double Dagger 9.1 3.1 66 2 9 24.1 97.12     Rain Showers
03:00 Legend Double Dagger 8.0 4.1 76 23 4 24.1 97.04     Rain Showers
04:00 Legend Double Dagger 7.4 4.2 80 36 3 24.1 96.94     Rain
05:00 Legend Double Dagger 8.4 4.4 76 14 11 24.1 96.85     Rain
06:00 Legend Double Dagger 9.1 3.5 68 19 28 24.1 96.76     Rain
07:00 Legend Double Dagger 9.2 3.4 67 20 30 24.1 96.70     Cloudy
08:00 Legend Double Dagger 9.0 3.9 70 20 32 24.1 96.69     LegendNANA
09:00 Legend Double Dagger 9.3 4.3 71 20 31 24.1 96.60     LegendNANA
10:00 Legend Double Dagger 10.0 4.8 70 20 41 24.1 96.59     Cloudy
11:00 Legend Double Dagger 10.0 5.0 71 20 28 24.1 96.61     LegendNANA
12:00 Legend Double Dagger 10.1 5.1 71 19 31 24.1 96.59     LegendNANA
13:00 Legend Double Dagger 10.1 5.1 71 19 30 24.1 96.49     Cloudy
14:00 Legend Double Dagger 9.7 5.3 74 19 35 24.1 96.43     LegendNANA
15:00 Legend Double Dagger 9.4 5.4 76 17 22 24.1 96.34     LegendNANA
16:00 Legend Double Dagger 9.3 5.5 77 18 23 24.1 96.28     Cloudy
17:00 Legend Double Dagger 9.5 5.7 77 17 18 24.1 96.21     LegendNANA
18:00 Legend Double Dagger 8.7 6.5 86 16 14 24.1 96.13     Rain
19:00 Legend Double Dagger 8.1 6.7 91 17 15 24.1 96.02     Rain
20:00 Legend Double Dagger 7.9 6.9 93 13 5 24.1 95.83     Rain
21:00 Legend Double Dagger 7.5 6.9 96 36 2 19.3 95.62     Rain
22:00 Legend Double Dagger 7.2 6.9 98 35 8 16.1 95.41     Rain
23:00 Legend Double Dagger 7.4 6.8 96 36 3 12.9 95.28     LegendNANA

Notes on Data Quality.

Legend

  • E = Estimated
  • M = Missing
  • NA = Not Available
  • ‡ = Partner data that is not subject to review by the National Climate Archives
Date modified: